{"data":{"norad_id":65222,"intl_designator":"2025-176AA","name":"STARLINK-34999","alt_names":[],"object_type":"PAYLOAD","status":"ACTIVE","operator":null,"country":"US","launch_date":"2025-08-14","launch_site_code":"AFETR","launch_vehicle":null,"mission":null,"orbit_class":"UNKNOWN","rcs_meters":null,"size_class":null,"mass_kg":null,"dimensions":null,"purposes":["comms"],"wikipedia_slug":null,"has_3d_model":false,"image_url":null,"decayed_at":null,"tle_current":{"epoch":"2026-05-25T04:00:47.839968Z","epoch_age_seconds":71320,"freshness":"FRESH","line1":"1 65222U 25176AA  26145.16722037  .01681106  00000+0  42873-1 0  9991","line2":"2 65222  53.1583 157.2002 0015854 243.3228 116.6152 15.35903556 44831","mean_motion":15.35903556,"eccentricity":0.0015854,"inclination_deg":53.1583,"raan_deg":157.2002,"arg_perigee_deg":243.3228,"mean_anomaly_deg":116.6152,"bstar":0.042873,"rev_number":4483,"period_min":93.755886844239,"perigee_km":447.39961202389,"apogee_km":469.0763898769,"semimajor_km":6836.3750009504,"source":"CELESTRAK","updated_at":"2026-05-25T13:38:20.722768Z"}}}